Detroit, MI

1:45 PM EST on January 17, 2018 (GMT -0500)
Detroit City

Weather History for KDET - January, 2014

Change the Weather History Date:

Thursday, January 23, 2014

  Actual Average Record
Temperature  
Mean Temperature 12 °F -  
Max Temperature 17 °F 35 °F 61 °F (1967)
Min Temperature 6 °F 21 °F -12 °F (1963)
Degree Days  
Heating Degree Days 54    
Moisture  
Dew Point 3 °F    
Average Humidity 68    
Maximum Humidity 80    
Minimum Humidity 53    
Precipitation  
Precipitation 0.00 in - - ()
Sea Level Pressure  
Sea Level Pressure 30.24 in    
Wind  
Wind Speed 6 mph (WNW)    
Max Wind Speed 9 mph    
Max Gust Speed 17 mph    
Visibility 7 miles    
Events Snow    
Averages and records for this station are not official NWS values.
T = Trace of Precipitation, MM = Missing Value Source: NWS Daily Summary

Daily Weather History Graph

Daily Weather History Graph

Search for Another Location

Airport or City:

Trip Planner

Search our weather history database for the weather conditions in past years. The results will help you decide how hot, cold, wet, or windy it might be!

Date:

Astronomy

Jan. 23, 2014 Rise Set
Actual Time 7:53 AM EST 5:34 PM EST
Civil Twilight 7:23 AM EST 6:04 PM EST
Nautical Twilight 6:49 AM EST 6:39 PM EST
Astronomical Twilight 6:15 AM EST 7:12 PM EST
Moon 12:13 AM EST (1/23) 11:18 AM EST (1/23)
Length of Visible Light 10h 41m
Length of Day
9h 40m
Waning Gibbous, 55% of the Moon is Illuminated
Jan 23
Waning Gibbous
Jan 24
Last Quarter
Jan 30
New
Feb 6
First Quarter
Feb 14
Full

Hourly Weather History & Observations

Time (EST) Temp. Windchill Dew Point Humidity Pressure Visibility Wind Dir Wind Speed Gust Speed Precip Events Conditions
12:39 AM 12.2 °F 1.7 °F 6.8 °F 79% 29.95 in 2.0 mi WSW 6.9 mph - 0.00 in Snow Light Snow
12:53 AM 12.0 °F 0.5 °F 6.1 °F 77% 29.99 in 2.5 mi WSW 8.1 mph - 0.00 in Snow Light Snow
1:14 AM 12.2 °F 2.9 °F 6.8 °F 79% 29.95 in 7.0 mi WSW 5.8 mph - 0.00 in Snow Light Snow
1:24 AM 12.2 °F 4.3 °F 5.0 °F 73% 29.95 in 10.0 mi WSW 4.6 mph - 0.00 in   Overcast
1:53 AM 12.0 °F 4.1 °F 6.1 °F 77% 29.95 in 5.0 mi WSW 4.6 mph - 0.00 in Snow Light Snow
2:53 AM 10.9 °F 2.9 °F 5.0 °F 77% 30.02 in 8.0 mi West 4.6 mph - 0.00 in   Overcast
3:53 AM 9.0 °F 0.6 °F 3.9 °F 80% 30.04 in 10.0 mi WNW 4.6 mph - N/A   Clear
4:53 AM 8.1 °F -2.0 °F 1.9 °F 76% 30.07 in 10.0 mi WNW 5.8 mph - N/A   Clear
5:53 AM 7.0 °F -1.7 °F 1.9 °F 80% 30.10 in 7.0 mi WNW 4.6 mph - 0.00 in   Overcast
6:12 AM 8.6 °F 0.1 °F 1.4 °F 73% 30.07 in 3.0 mi WNW 4.6 mph - 0.00 in Snow Light Snow
6:46 AM 6.8 °F -3.5 °F 1.4 °F 79% 30.09 in 10.0 mi WNW 5.8 mph - 0.00 in   Overcast
6:53 AM 7.0 °F -1.7 °F 1.0 °F 77% 30.14 in 10.0 mi WNW 4.6 mph - 0.00 in   Overcast
7:24 AM 8.6 °F -3.7 °F 1.4 °F 73% 30.11 in 2.5 mi WNW 8.1 mph - 0.00 in Snow Light Snow
7:49 AM 8.6 °F -1.3 °F 1.4 °F 73% 30.13 in 3.0 mi WNW 5.8 mph - 0.00 in Snow Light Snow
7:53 AM 8.1 °F -2.0 °F 1.9 °F 76% 30.17 in 4.0 mi WNW 5.8 mph - 0.00 in Snow Light Snow
8:06 AM 8.6 °F -1.3 °F 3.2 °F 79% 30.13 in 2.0 mi WNW 5.8 mph - 0.00 in Snow Light Snow
8:25 AM 8.6 °F -1.3 °F 3.2 °F 79% 30.15 in 2.0 mi WNW 5.8 mph - 0.00 in Snow Light Snow
8:33 AM 8.6 °F 0.1 °F 3.2 °F 79% 30.15 in 3.0 mi WNW 4.6 mph - 0.00 in Snow Light Snow
8:53 AM 9.0 °F 0.6 °F 3.0 °F 77% 30.21 in 4.0 mi WNW 4.6 mph - 0.00 in   Haze
9:11 AM 8.6 °F -1.3 °F 3.2 °F 79% 30.18 in 2.5 mi WNW 5.8 mph - N/A   Haze
9:53 AM 10.0 °F -1.9 °F 3.0 °F 73% 30.25 in 2.5 mi WNW 8.1 mph - N/A   Haze
10:00 AM 10.4 °F 0.8 °F 3.2 °F 73% 30.21 in 5.0 mi WNW 5.8 mph - N/A   Haze
10:49 AM 12.2 °F 0.7 °F 3.2 °F 67% 30.24 in 10.0 mi NNW 8.1 mph - N/A   Scattered Clouds
10:53 AM 12.9 °F 1.6 °F 3.0 °F 65% 30.28 in 10.0 mi NNW 8.1 mph - N/A   Partly Cloudy
11:53 AM 15.1 °F 4.2 °F 3.9 °F 61% 30.30 in 10.0 mi NW 8.1 mph - N/A   Partly Cloudy
12:16 PM 15.8 °F 6.1 °F 3.2 °F 58% 30.26 in 10.0 mi NNW 6.9 mph - N/A   Mostly Cloudy
12:53 PM 16.0 °F 7.4 °F 3.0 °F 57% 30.30 in 10.0 mi NNW 5.8 mph - N/A   Mostly Cloudy
1:02 PM 15.8 °F 5.1 °F 1.4 °F 53% 30.27 in 10.0 mi NNW 8.1 mph 16.1 mph N/A   Scattered Clouds
1:15 PM 15.8 °F 4.2 °F 1.4 °F 53% 30.27 in 10.0 mi NW 9.2 mph - N/A   Mostly Cloudy
1:53 PM 17.1 °F 6.6 °F 3.0 °F 54% 30.32 in 10.0 mi NW 8.1 mph - N/A   Mostly Cloudy
2:53 PM 17.1 °F 7.6 °F 3.9 °F 56% 30.35 in 10.0 mi NNW 6.9 mph - N/A   Overcast
3:53 PM 17.1 °F 7.6 °F 3.0 °F 54% 30.38 in 10.0 mi NNW 6.9 mph - N/A   Overcast
4:08 PM 17.6 °F 7.3 °F 3.2 °F 53% 30.34 in 10.0 mi NNW 8.1 mph - N/A   Overcast
4:18 PM 15.8 °F 4.2 °F 6.8 °F 68% 30.35 in 2.5 mi NW 9.2 mph 17.3 mph 0.00 in Snow Light Snow
4:28 PM 15.8 °F 6.1 °F 5.0 °F 62% 30.36 in 5.0 mi NW 6.9 mph - 0.00 in Snow Light Snow
4:41 PM 17.6 °F 6.4 °F 3.2 °F 53% 30.36 in 10.0 mi NNW 9.2 mph - 0.00 in   Overcast
4:48 PM 15.8 °F 4.2 °F 3.2 °F 58% 30.37 in 10.0 mi NNW 9.2 mph - 0.00 in   Overcast
4:53 PM 16.0 °F 4.4 °F 3.9 °F 59% 30.37 in 10.0 mi NW 9.2 mph - 0.00 in   Overcast
5:53 PM 14.0 °F 2.9 °F 1.9 °F 59% 30.45 in 10.0 mi NNW 8.1 mph - N/A   Mostly Cloudy
6:14 PM 12.2 °F 2.9 °F 1.4 °F 62% 30.42 in 10.0 mi NNW 5.8 mph - N/A   Partly Cloudy
6:53 PM 12.0 °F 2.7 °F -0.0 °F 59% 30.48 in 10.0 mi NW 5.8 mph - N/A   Clear
7:53 PM 10.0 °F 3.6 °F -0.9 °F 61% 30.50 in 10.0 mi NW 3.5 mph - N/A   Clear
8:53 PM 9.0 °F 2.4 °F -0.9 °F 64% 30.50 in 10.0 mi WNW 3.5 mph - N/A   Clear
9:53 PM 9.0 °F 0.6 °F -0.0 °F 67% 30.49 in 10.0 mi West 4.6 mph - N/A   Clear
10:53 PM 9.0 °F 0.6 °F -0.9 °F 64% 30.48 in 10.0 mi WSW 4.6 mph - N/A   Mostly Cloudy
11:53 PM 6.1 °F -2.8 °F -2.9 °F 67% 30.48 in 10.0 mi WSW 4.6 mph - N/A   Clear